{"data":{"norad_id":68259,"epoch":"2026-05-25T03:38:09.467808Z","epoch_age_seconds":52037,"freshness":"FRESH","line1":"1 68259U 26054AD  26145.15149847  .00023897  00000+0  55656-3 0  9992","line2":"2 68259  53.1590 299.2356 0001489 107.9456 252.1712 15.42177022 10737","mean_motion":15.42177022,"eccentricity":0.0001489,"inclination_deg":53.159,"raan_deg":299.2356,"arg_perigee_deg":107.9456,"mean_anomaly_deg":252.1712,"bstar":0.00055656,"rev_number":1073,"period_min":93.374494591581,"perigee_km":438.67031100535,"apogee_km":440.70065854132,"semimajor_km":6817.8224847733,"source":"CELESTRAK","updated_at":"2026-05-25T13:38:21.888818Z"}}